SCP
0 0 0 0 0 0 0 0 0 0 0 0 0 0 0 0 0 0 0 0 0 0 0 0 0 0 0 0 0 0 0 0 0 0 0 0 0 0 0 0 0 0 0 0 0 0 0
0 0 0 0 0 0 0 0 0 0 0 0 0 0 0 0 0 0 0 0 0 0 0 0 0 0 0 0 0 0 0 0 0 0 0 0 0 0 0 0 0 0 0 0 0 0 0
0 0 0 0 0 0 0 0 0 0 0 0 0 0 0 0 0 0 0 0 0 0 0 0 0 0 0 0 0 0 0 0 0 0 0 0 0 0 0 0 0 0 0 0 0 0 0
0 0 0 0 0 0 0 0 0 0 0 0 0 0 0 0 0 0 0 0 0 0 0 0 0 0 0 0 0 0 0 0 0 0 0 0 0 0 0 0 0 0 0 0 0 0 0
0 0 0 0 0 0 0 0 0 0 0 0 0 0 0 0 0 0 0 0 0 0 0 0 0 0 0 0 0 0 0 0 0 0 0 0 0 0 0 0 0 0 0 0 0 0 0
0 0 0 0 0 0 0 0 0 0 0 0 0 0 0 0 0 0 0 0 0 0 0 0 0 0 0 0 0 0 0 0 0 0 0 0 0 0 0 0 0 0 0 0 0 0 0
0 0 0 0 0 0 0 0 0 0 0 0 0 0 0 0 0 0 0 0 0 -0 0 0 0 0 0 0 0 0 0 0 0 0 0 0 0 0 0 0 0 0 0 0 0 0 0
0 0 0 0 0 0 0 0 0 0 0 0 0 0 0 0 0 0 0 0 0 0 0 0 0 0 0 0 0 0 -0 -0 0 0 0 0 0 0 0 0 0 0 0 0 0 0 0
0 0 0 0 0 0 0 0 0 0 0 0 0 0 0 0 0 0 0 0 0 0 0 0 0 0 0 0 -0 0 -0 -0 0 0 0 0 0 0 0 0 0 0 0 0 0 0 0
0 0 0 0 0 0 0 0 0 0 0 0 0 0 0 0 0 0 0 0 0 0 0 0 0 -0 0 0 0 0 -0 -0 0 0 0 0 0 0 0 0 0 0 0 0 0 0 0
0 0 0 0 0 0 0 0 0 0 0 0 0 0 0 0 0 0 0 0 0 0 0 0 0 0 0 0 0 0 0 0 0 0 0 0 0 0 -0 0 0 0 0 0 0 0 0
0 0 0 0 0 0 0 0 0 0 0 0 0 0 0 0 0 0 0 0 0 0 0 0 0 0 0 -0 0 0 0 0 0 0 0 0 0 0 0 0 0 0 0 0 0 0 0
0 0 0 0 0 0 0 0 0 0 0 0 0 0 0 0 0 0 0 0 0 0 0 0 -0 -0 -0 -0 0 0 0 0 0 0 0 0 0 0 -0 0 0 0 0 0 0 0 0
0 0 0 0 0 0 0 0 0 0 0 0 0 0 0 0 0 0 0 0 0 0 0 0 -0 -0 0 0 0 0 0 0 0 0 -0 0 0 0 -0 0 0 0 0 0 0 0 0
0 0 0 0 0 0 0 0 0 0 0 0 0 0 0 0 0 0 0 0 0 0 0 -0 -0 0 0 0 0 0 0 0 0 -0 -0 0 0 0 0 0 0 0 0 0 0 0 0
0 0 0 0 0 0 0 0 0 0 0 0 0 0 0 0 0 0 0 0 0 0 -0 0 0 0 0 0 0 0 0 -0 0 -0 -0 -0 -0 0 0 0 0 0 0 0 0 0 0
0 0 0 0 0 0 0 0 0 0 0 0 0 0 0 0 0 0 0 0 0 0 0 0 0 0 -0 0 0 -0 0 -0 -0 -0 -0 0 0 -0 0 0 0 0 0 0 -0 0 0
0 0 0 0 0 0 0 0 0 0 0 0 0 0 0 0 0 0 0 0 0 -0 0 -0 0 -0 0 0 0 -0 -0 -0 -0 -0 0 0 -0 0 -0 0 0 0 0 0 0 -0 0
0 0 0 0 0 0 0 0 0 0 0 0 0 0 0 0 0 0 0 0 0 0 0 -0 0 -0 -0 0 0 0 0 -0 0 -0 0 -0 0 0 0 0 0 0 0 0 0 0 0
0 0 0 0 0 0 0 0 0 -0 0 0 0 0 0 0 0 0 0 0 0 -0 -0 -0 0 -0 0 0 -0 -0 -0 0 -0 -0 -0 -0 -0 0 0 -0 0 0 0 0 0 0 0
0 0 0 0 0 0 0 0 0 -0 0 0 0 0 0 0 0 0 0 0 -0 0 -0 -0 0 0 -0 -0 0 -0 0 -0 -0 -0 -0 -0 0 0 -0 0 0 0 0 0 0 0 0
0 0 0 0 0 0 0 0 -0 -0 0 0 0 0 0 0 0 0 0 0 -0 -0 -0 0 0 -0 -0 0 -0 -0 -0 0 0 0 -0 -0 -0 0 0 0 0 0 0 0 0 0 0
0 0 0 0 0 0 0 0 -0 -0 0 0 0 0 0 0 0 0 0 0 -0 -0 -0 0 -0 -0 0 0 -0 0 0 0 0 0 0 0 0 0 0 0 0 0 -0 -0 0 0 0
0 0 0 0 0 0 0 0 -0 -0 0 0 0 0 0 0 0 0 0 -0 -0 -0 -0 -0 0 0 0 0 0 0 0 0 0 0 0 0 0 0 0 0 0 -0 0 -0 -0 0 0
0 0 0 0 0 0 0 0 -0 0 0 0 0 0 0 0 0 0 -0 -0 -0 -0 0 -0 -0 0 0 -0 0 0 0 0 -0 -0 0 0 0 0 0 0 0 0 0 0 0 0 0
0 0 0 0 0 0 0 0 -0 -0 0 0 0 0 0 0 0 0 0 -0 0 -0 0 0 0 0 -0 0 0 0 0 0 0 0 0 0 0 0 0 0 0 0 0 -0 -0 0 0
0 0 0 0 0 0 0 -0 -0 -0 0 0 0 0 0 0 0 0 -0 -0 0 0 0 0 0 -0 -0 0 0 0 0 0 0 0 -0 0 0 0 0 0 0 0 0 0 0 0 0
0 0 0 0 0 0 0 0 -0 0 0 0 0 0 0 0 -0 -0 -0 0 0 0 0 0 -0 -0 -0 -0 0 0 0 0 -0 -0 -0 0 0 0 0 0 0 0 0 0 0 0 0
0 0 0 0 0 0 0 -0 -0 -0 0 0 0 0 0 0 0 0 -0 -0 -0 0 0 0 -0 -0 -0 -0 -0 -0 0 0 -0 0 -0 -0 -0 0 0 0 0 0 -0 0 0 0 0
Wind_Speed_500mb
34 35 36 38 39 39 45 42 45 45 46 46 51 55 56 56 59 61 64 65 67 67 66 55 50 52 50 23 65 70 42 37 40 49 37 29 41 31 15 13 26 27 4 27 59 62 45
32 34 36 37 35 41 45 44 45 47 46 47 53 55 56 56 57 62 64 67 69 69 67 57 48 46 43 44 66 31 23 27 27 42 55 46 46 52 20 19 28 6 33 53 46 34 21
36 36 37 35 36 37 37 41 44 46 49 52 55 62 57 60 62 66 68 72 72 71 66 64 61 52 55 93 71 74 63 68 74 65 60 57 60 44 15 10 50 46 35 33 33 24 14
33 35 40 35 36 35 42 45 46 47 52 49 60 55 57 58 62 67 69 74 71 70 73 69 43 35 48 49 57 39 18 35 29 39 55 49 49 64 51 20 12 8 8 34 35 26 15
39 40 39 40 44 39 41 44 45 48 51 52 58 57 58 59 64 65 70 72 75 70 62 47 29 29 32 29 26 20 15 42 67 60 35 50 52 39 19 29 20 14 34 27 21 11 17
38 40 40 44 43 45 42 44 42 47 52 57 52 57 60 60 63 68 73 72 73 60 24 28 36 16 30 38 26 44 84 86 66 71 60 40 26 22 26 27 43 52 25 8 13 19 30
34 35 37 37 42 46 48 48 49 48 52 55 57 54 60 61 65 70 72 75 47 24 39 48 65 73 94 92 65 61 49 56 49 43 38 52 29 45 55 50 50 46 34 32 24 14 20
38 40 40 41 43 43 51 53 50 54 51 57 55 58 60 63 67 66 55 64 32 41 40 58 74 78 90 79 62 62 8 4 8 15 21 25 50 64 53 41 44 49 48 47 21 20 19
42 43 42 45 45 47 44 54 48 51 54 58 58 59 63 66 69 51 67 38 38 47 22 55 44 41 36 18 24 44 17 19 16 20 28 40 57 32 56 56 51 51 49 49 42 9 27
42 47 51 50 43 44 48 53 54 51 59 55 61 64 64 68 55 66 51 36 42 45 10 15 8 10 5 11 13 23 48 25 11 20 24 31 53 52 50 43 59 57 56 48 44 27 37
39 47 54 53 51 48 52 51 50 52 58 59 60 64 66 61 66 53 36 36 36 29 9 11 11 10 51 29 33 68 52 25 39 37 11 22 27 34 40 59 47 53 46 46 43 33 32
45 45 47 46 52 49 52 53 55 56 55 57 59 67 68 69 58 26 32 36 26 9 14 15 13 20 34 63 48 28 27 20 35 24 26 51 39 17 25 11 30 41 15 32 26 26 39
45 49 45 57 50 57 55 56 56 57 59 55 64 68 66 63 38 26 28 29 9 6 15 16 40 44 42 55 28 7 10 10 8 8 9 11 37 46 28 23 19 13 23 18 21 23 32
47 47 50 50 51 60 51 57 53 60 59 61 65 68 70 36 21 20 23 9 5 11 15 23 35 54 40 22 11 6 14 15 7 10 12 8 15 12 22 41 19 19 23 17 20 9 25
46 52 49 47 55 55 54 58 59 60 63 64 65 72 58 12 17 16 21 5 12 10 11 27 51 14 12 10 10 10 7 7 7 3 5 9 12 15 20 10 40 15 22 3 2 3 7
48 48 47 51 50 54 56 54 53 61 63 64 67 66 22 17 18 24 2 11 10 12 36 33 37 16 22 26 11 6 6 9 6 7 1 6 15 9 3 9 12 9 14 12 17 11 17
47 53 54 51 49 55 54 56 56 59 62 63 51 27 14 24 39 10 4 14 14 42 39 9 25 34 30 19 11 5 10 13 9 12 5 5 7 12 9 11 16 17 9 6 4 4 4
49 50 50 49 50 53 56 54 57 53 61 61 28 5 31 40 6 2 5 11 30 38 38 21 17 29 26 10 7 6 10 8 18 12 15 9 7 9 15 4 8 6 9 11 6 8 4
49 46 52 47 47 50 59 51 56 47 52 60 22 17 25 19 5 4 11 16 13 9 14 9 11 15 31 13 11 8 7 13 24 16 10 6 6 10 13 1 3 5 3 7 7 5 13
50 52 49 47 44 53 51 51 44 49 54 50 19 6 11 7 12 6 8 13 10 18 20 17 25 25 28 19 4 13 17 12 33 26 29 9 6 8 10 16 8 6 3 5 23 6 6
47 57 47 47 47 50 54 48 47 56 49 43 10 10 15 10 8 9 3 9 20 12 12 26 10 12 36 17 10 6 10 24 11 12 11 5 6 7 25 17 6 10 13 14 6 3 7
47 51 47 46 46 52 47 46 47 52 46 34 14 16 11 10 12 4 7 10 23 14 6 18 12 40 33 23 28 39 29 22 17 7 9 8 8 11 11 12 13 9 23 16 17 10 8
44 51 47 44 46 46 46 44 50 48 45 29 35 39 21 5 5 2 8 12 25 30 27 27 35 39 24 27 29 54 58 51 35 24 15 7 6 9 9 4 6 10 18 13 5 13 6
44 48 50 42 49 46 43 43 50 44 39 38 32 29 13 12 6 14 25 34 34 27 27 56 53 10 29 75 78 57 35 32 29 29 16 6 4 5 8 7 7 6 4 3 6 13 12
46 44 50 48 44 45 41 44 47 42 35 38 31 25 11 9 27 24 23 20 29 35 22 32 50 44 60 38 9 14 9 6 6 11 20 22 6 6 4 3 5 4 8 6 6 8 15
50 46 48 45 45 43 41 42 47 41 39 36 33 25 18 15 8 22 8 14 8 9 11 15 56 47 21 6 4 5 6 6 7 4 5 14 16 6 5 5 3 6 11 6 3 1 13
51 49 46 47 42 42 42 44 44 40 36 33 33 21 21 20 22 13 10 8 14 11 9 14 27 19 22 7 5 5 6 3 8 8 8 4 4 2 6 5 3 9 18 2 7 9 28
55 50 44 48 42 41 40 43 42 37 32 30 32 23 18 17 48 34 16 22 32 24 5 20 20 7 6 10 6 7 6 8 6 6 8 8 6 5 5 6 5 35 7 9 9 19 33
57 51 44 45 40 39 38 40 37 36 31 34 31 25 21 25 39 57 61 51 39 37 32 7 7 7 9 5 5 6 6 7 5 7 8 7 7 5 8 6 8 15 18 19 20 18 25
Wind_Direction_500mb
16 13 11 2 1 3 3 3 358 353 354 351 346 339 343 344 341 338 334 332 329 326 324 324 327 325 320 291 262 274 275 252 257 267 275 255 224 220 229 208 232 249 240 230 233 243 239
12 6 5 359 359 355 352 354 352 351 351 343 340 339 341 340 336 332 331 329 327 324 324 324 319 313 305 265 285 300 280 269 277 265 265 253 234 231 255 231 225 227 226 244 252 248 228
7 6 358 351 350 350 348 342 342 342 338 341 338 338 341 340 337 332 330 327 324 321 321 320 317 300 275 255 275 285 280 276 276 271 271 258 244 238 238 261 248 249 263 269 245 246 242
3 359 355 354 345 346 342 339 340 338 334 336 334 338 336 334 331 330 327 325 327 325 321 319 304 294 260 268 290 294 303 292 316 309 258 263 255 243 239 279 303 231 215 242 244 233 216
358 352 352 349 346 347 343 335 334 334 331 334 333 332 331 332 330 328 329 325 328 325 325 310 292 296 266 276 279 302 270 322 309 307 291 259 244 233 210 225 250 222 243 237 252 216 208
353 357 351 344 343 342 340 341 339 334 334 331 332 326 331 333 329 328 329 325 333 329 339 315 288 295 264 273 271 281 294 298 303 292 294 263 239 217 218 207 226 231 228 220 191 190 211
351 349 346 342 339 338 334 336 334 338 338 331 325 333 330 330 328 328 328 335 347 331 314 290 266 266 276 290 294 298 306 302 294 276 251 256 244 227 217 218 228 239 239 239 233 238 196
353 346 341 336 338 338 335 336 339 334 333 330 333 328 329 328 329 331 329 331 335 308 304 292 277 271 269 282 286 298 338 269 271 266 289 253 252 231 231 225 223 228 238 246 259 229 240
342 342 338 340 343 341 336 333 335 337 333 333 328 329 329 330 328 332 325 333 330 321 291 297 287 266 278 283 233 273 230 303 227 276 255 241 250 242 235 233 234 236 238 240 240 216 237
342 335 336 340 340 336 337 335 338 335 334 328 325 329 329 333 330 323 325 333 331 324 287 271 271 284 325 290 262 268 305 283 225 239 260 243 260 243 254 256 222 234 225 232 239 235 242
343 337 334 335 341 335 340 330 330 330 331 329 325 327 331 333 317 314 326 337 326 322 312 275 300 301 331 303 286 296 290 266 251 248 226 251 232 232 241 237 224 229 218 217 224 234 243
338 330 325 334 337 335 334 329 332 332 333 331 324 328 334 332 324 326 323 333 320 48 257 308 303 327 326 312 301 281 276 278 248 255 251 247 244 216 203 293 224 229 197 216 217 217 235
328 331 327 333 330 330 329 335 326 332 332 329 327 331 335 327 316 323 330 336 19 140 326 294 319 318 310 300 296 274 296 284 251 287 264 271 233 240 248 248 253 254 196 215 219 216 236
329 328 326 327 332 335 336 332 327 328 330 328 327 332 335 328 328 326 339 41 109 247 259 302 301 304 282 276 264 274 287 282 270 242 280 292 317 166 187 203 213 207 237 206 210 192 226
329 328 326 326 329 334 331 331 326 329 331 332 331 335 337 316 321 326 339 48 216 245 297 308 316 302 287 278 273 339 238 250 250 236 294 304 286 305 208 186 194 192 224 325 319 4 63
325 320 324 324 327 329 326 325 332 326 332 333 336 336 332 316 308 321 49 248 227 258 303 305 291 251 287 295 302 329 301 244 273 248 201 275 288 310 265 115 204 180 166 196 220 215 217
324 323 326 321 324 331 327 330 335 327 332 334 339 324 303 307 313 293 191 232 271 294 306 273 288 287 286 292 237 241 271 287 237 302 304 254 238 293 282 192 180 187 218 171 119 169 86
317 317 325 321 324 326 330 329 332 332 329 338 331 308 315 299 309 344 247 211 301 296 303 275 265 272 278 287 278 262 253 252 336 335 308 222 269 270 255 201 250 183 234 184 135 220 221
316 318 323 322 322 327 325 328 333 331 328 330 285 268 299 292 263 267 289 281 260 285 291 302 277 289 320 315 303 238 273 287 323 343 297 314 284 307 337 44 27 147 197 161 141 106 197
316 317 320 315 324 325 327 332 329 329 334 333 305 287 283 235 263 234 279 267 283 279 275 269 283 288 330 310 252 285 302 311 326 299 309 308 310 311 298 309 296 273 53 245 214 192 178
310 319 318 320 321 326 325 325 323 329 336 335 287 252 255 275 260 230 167 267 296 311 243 305 293 315 324 307 282 256 288 298 288 299 353 51 274 284 297 290 292 42 22 342 322 72 225
307 317 315 316 322 320 326 320 327 333 338 338 295 306 297 274 281 287 272 262 292 296 283 301 284 309 310 295 287 294 294 292 278 314 26 337 275 357 300 349 13 65 13 18 41 355 22
306 311 314 312 313 316 319 319 328 333 338 328 313 307 292 306 286 211 250 257 293 311 299 283 295 305 299 282 279 279 282 273 258 275 296 295 325 348 274 32 52 24 349 13 82 31 341
300 306 314 310 312 315 316 320 325 330 334 324 314 315 293 278 220 257 276 282 287 285 273 293 302 265 288 308 306 289 269 262 260 252 215 231 347 257 264 14 49 220 290 298 87 62 34
295 301 309 311 307 316 317 318 323 331 331 323 321 321 282 274 290 282 270 266 284 289 272 277 286 302 312 311 297 331 330 340 292 206 212 204 214 268 340 60 156 55 353 349 15 60 16
292 297 307 303 307 315 313 313 324 330 329 314 316 314 286 290 252 301 295 276 280 298 297 261 313 327 336 281 283 281 304 301 339 3 32 185 213 288 344 70 67 260 325 240 197 353 7
287 293 301 301 303 308 308 311 323 329 328 317 311 312 291 268 276 301 273 273 293 294 269 304 330 335 358 330 319 322 320 313 15 19 335 352 9 158 254 115 349 355 312 360 55 288 337
282 289 294 300 301 303 306 307 319 320 327 314 314 305 284 278 289 274 266 270 291 289 274 309 339 355 339 1 353 342 304 2 7 355 346 22 337 12 17 60 6 342 14 58 326 318 334
278 284 287 297 294 295 299 297 307 315 311 320 314 308 298 270 273 287 289 284 273 271 276 295 277 299 329 332 354 319 316 341 359 4 347 38 356 357 21 76 98 48 72 30 5 339 340
Wind_Speed_850mb
34 35 36 38 39 39 45 42 45 45 46 46 51 55 56 56 59 61 64 65 67 67 66 55 50 52 50 23 65 70 42 37 40 49 37 29 41 31 15 13 26 27 4 27 59 62 45
32 34 36 37 35 41 45 44 45 47 46 47 53 55 56 56 57 62 64 67 69 69 67 57 48 46 43 44 66 31 23 27 27 42 55 46 46 52 20 19 28 6 33 53 46 34 21
36 36 37 35 36 37 37 41 44 46 49 52 55 62 57 60 62 66 68 72 72 71 66 64 61 52 55 93 71 74 63 68 74 65 60 57 60 44 15 10 50 46 35 33 33 24 14
33 35 40 35 36 35 42 45 46 47 52 49 60 55 57 58 62 67 69 74 71 70 73 69 43 35 48 49 57 39 18 35 29 39 55 49 49 64 51 20 12 8 8 34 35 26 15
39 40 39 40 44 39 41 44 45 48 51 52 58 57 58 59 64 65 70 72 75 70 62 47 29 29 32 29 26 20 15 42 67 60 35 50 52 39 19 29 20 14 34 27 21 11 17
38 40 40 44 43 45 42 44 42 47 52 57 52 57 60 60 63 68 73 72 73 60 24 28 36 16 30 38 26 44 84 86 66 71 60 40 26 22 26 27 43 52 25 8 13 19 30
34 35 37 37 42 46 48 48 49 48 52 55 57 54 60 61 65 70 72 75 47 24 39 48 65 73 94 92 65 61 49 56 49 43 38 52 29 45 55 50 50 46 34 32 24 14 20
38 40 40 41 43 43 51 53 50 54 51 57 55 58 60 63 67 66 55 64 32 41 40 58 74 78 90 79 62 62 8 4 8 15 21 25 50 64 53 41 44 49 48 47 21 20 19
42 43 42 45 45 47 44 54 48 51 54 58 58 59 63 66 69 51 67 38 38 47 22 55 44 41 36 18 24 44 17 19 16 20 28 40 57 32 56 56 51 51 49 49 42 9 27
42 47 51 50 43 44 48 53 54 51 59 55 61 64 64 68 55 66 51 36 42 45 10 15 8 10 5 11 13 23 48 25 11 20 24 31 53 52 50 43 59 57 56 48 44 27 37
39 47 54 53 51 48 52 51 50 52 58 59 60 64 66 61 66 53 36 36 36 29 9 11 11 10 51 29 33 68 52 25 39 37 11 22 27 34 40 59 47 53 46 46 43 33 32
45 45 47 46 52 49 52 53 55 56 55 57 59 67 68 69 58 26 32 36 26 9 14 15 13 20 34 63 48 28 27 20 35 24 26 51 39 17 25 11 30 41 15 32 26 26 39
45 49 45 57 50 57 55 56 56 57 59 55 64 68 66 63 38 26 28 29 9 6 15 16 40 44 42 55 28 7 10 10 8 8 9 11 37 46 28 23 19 13 23 18 21 23 32
47 47 50 50 51 60 51 57 53 60 59 61 65 68 70 36 21 20 23 9 5 11 15 23 35 54 40 22 11 6 14 15 7 10 12 8 15 12 22 41 19 19 23 17 20 9 25
46 52 49 47 55 55 54 58 59 60 63 64 65 72 58 12 17 16 21 5 12 10 11 27 51 14 12 10 10 10 7 7 7 3 5 9 12 15 20 10 40 15 22 3 2 3 7
48 48 47 51 50 54 56 54 53 61 63 64 67 66 22 17 18 24 2 11 10 12 36 33 37 16 22 26 11 6 6 9 6 7 1 6 15 9 3 9 12 9 14 12 17 11 17
47 53 54 51 49 55 54 56 56 59 62 63 51 27 14 24 39 10 4 14 14 42 39 9 25 34 30 19 11 5 10 13 9 12 5 5 7 12 9 11 16 17 9 6 4 4 4
49 50 50 49 50 53 56 54 57 53 61 61 28 5 31 40 6 2 5 11 30 38 38 21 17 29 26 10 7 6 10 8 18 12 15 9 7 9 15 4 8 6 9 11 6 8 4
49 46 52 47 47 50 59 51 56 47 52 60 22 17 25 19 5 4 11 16 13 9 14 9 11 15 31 13 11 8 7 13 24 16 10 6 6 10 13 1 3 5 3 7 7 5 13
50 52 49 47 44 53 51 51 44 49 54 50 19 6 11 7 12 6 8 13 10 18 20 17 25 25 28 19 4 13 17 12 33 26 29 9 6 8 10 16 8 6 3 5 23 6 6
47 57 47 47 47 50 54 48 47 56 49 43 10 10 15 10 8 9 3 9 20 12 12 26 10 12 36 17 10 6 10 24 11 12 11 5 6 7 25 17 6 10 13 14 6 3 7
47 51 47 46 46 52 47 46 47 52 46 34 14 16 11 10 12 4 7 10 23 14 6 18 12 40 33 23 28 39 29 22 17 7 9 8 8 11 11 12 13 9 23 16 17 10 8
44 51 47 44 46 46 46 44 50 48 45 29 35 39 21 5 5 2 8 12 25 30 27 27 35 39 24 27 29 54 58 51 35 24 15 7 6 9 9 4 6 10 18 13 5 13 6
44 48 50 42 49 46 43 43 50 44 39 38 32 29 13 12 6 14 25 34 34 27 27 56 53 10 29 75 78 57 35 32 29 29 16 6 4 5 8 7 7 6 4 3 6 13 12
46 44 50 48 44 45 41 44 47 42 35 38 31 25 11 9 27 24 23 20 29 35 22 32 50 44 60 38 9 14 9 6 6 11 20 22 6 6 4 3 5 4 8 6 6 8 15
50 46 48 45 45 43 41 42 47 41 39 36 33 25 18 15 8 22 8 14 8 9 11 15 56 47 21 6 4 5 6 6 7 4 5 14 16 6 5 5 3 6 11 6 3 1 13
51 49 46 47 42 42 42 44 44 40 36 33 33 21 21 20 22 13 10 8 14 11 9 14 27 19 22 7 5 5 6 3 8 8 8 4 4 2 6 5 3 9 18 2 7 9 28
55 50 44 48 42 41 40 43 42 37 32 30 32 23 18 17 48 34 16 22 32 24 5 20 20 7 6 10 6 7 6 8 6 6 8 8 6 5 5 6 5 35 7 9 9 19 33
57 51 44 45 40 39 38 40 37 36 31 34 31 25 21 25 39 57 61 51 39 37 32 7 7 7 9 5 5 6 6 7 5 7 8 7 7 5 8 6 8 15 18 19 20 18 25
Wind_Direction_850mb
16 13 11 2 1 3 3 3 358 353 354 351 346 339 343 344 341 338 334 332 329 326 324 324 327 325 320 291 262 274 275 252 257 267 275 255 224 220 229 208 232 249 240 230 233 243 239
12 6 5 359 359 355 352 354 352 351 351 343 340 339 341 340 336 332 331 329 327 324 324 324 319 313 305 265 285 300 280 269 277 265 265 253 234 231 255 231 225 227 226 244 252 248 228
7 6 358 351 350 350 348 342 342 342 338 341 338 338 341 340 337 332 330 327 324 321 321 320 317 300 275 255 275 285 280 276 276 271 271 258 244 238 238 261 248 249 263 269 245 246 242
3 359 355 354 345 346 342 339 340 338 334 336 334 338 336 334 331 330 327 325 327 325 321 319 304 294 260 268 290 294 303 292 316 309 258 263 255 243 239 279 303 231 215 242 244 233 216
358 352 352 349 346 347 343 335 334 334 331 334 333 332 331 332 330 328 329 325 328 325 325 310 292 296 266 276 279 302 270 322 309 307 291 259 244 233 210 225 250 222 243 237 252 216 208
353 357 351 344 343 342 340 341 339 334 334 331 332 326 331 333 329 328 329 325 333 329 339 315 288 295 264 273 271 281 294 298 303 292 294 263 239 217 218 207 226 231 228 220 191 190 211
351 349 346 342 339 338 334 336 334 338 338 331 325 333 330 330 328 328 328 335 347 331 314 290 266 266 276 290 294 298 306 302 294 276 251 256 244 227 217 218 228 239 239 239 233 238 196
353 346 341 336 338 338 335 336 339 334 333 330 333 328 329 328 329 331 329 331 335 308 304 292 277 271 269 282 286 298 338 269 271 266 289 253 252 231 231 225 223 228 238 246 259 229 240
342 342 338 340 343 341 336 333 335 337 333 333 328 329 329 330 328 332 325 333 330 321 291 297 287 266 278 283 233 273 230 303 227 276 255 241 250 242 235 233 234 236 238 240 240 216 237
342 335 336 340 340 336 337 335 338 335 334 328 325 329 329 333 330 323 325 333 331 324 287 271 271 284 325 290 262 268 305 283 225 239 260 243 260 243 254 256 222 234 225 232 239 235 242
343 337 334 335 341 335 340 330 330 330 331 329 325 327 331 333 317 314 326 337 326 322 312 275 300 301 331 303 286 296 290 266 251 248 226 251 232 232 241 237 224 229 218 217 224 234 243
338 330 325 334 337 335 334 329 332 332 333 331 324 328 334 332 324 326 323 333 320 48 257 308 303 327 326 312 301 281 276 278 248 255 251 247 244 216 203 293 224 229 197 216 217 217 235
328 331 327 333 330 330 329 335 326 332 332 329 327 331 335 327 316 323 330 336 19 140 326 294 319 318 310 300 296 274 296 284 251 287 264 271 233 240 248 248 253 254 196 215 219 216 236
329 328 326 327 332 335 336 332 327 328 330 328 327 332 335 328 328 326 339 41 109 247 259 302 301 304 282 276 264 274 287 282 270 242 280 292 317 166 187 203 213 207 237 206 210 192 226
329 328 326 326 329 334 331 331 326 329 331 332 331 335 337 316 321 326 339 48 216 245 297 308 316 302 287 278 273 339 238 250 250 236 294 304 286 305 208 186 194 192 224 325 319 4 63
325 320 324 324 327 329 326 325 332 326 332 333 336 336 332 316 308 321 49 248 227 258 303 305 291 251 287 295 302 329 301 244 273 248 201 275 288 310 265 115 204 180 166 196 220 215 217
324 323 326 321 324 331 327 330 335 327 332 334 339 324 303 307 313 293 191 232 271 294 306 273 288 287 286 292 237 241 271 287 237 302 304 254 238 293 282 192 180 187 218 171 119 169 86
317 317 325 321 324 326 330 329 332 332 329 338 331 308 315 299 309 344 247 211 301 296 303 275 265 272 278 287 278 262 253 252 336 335 308 222 269 270 255 201 250 183 234 184 135 220 221
316 318 323 322 322 327 325 328 333 331 328 330 285 268 299 292 263 267 289 281 260 285 291 302 277 289 320 315 303 238 273 287 323 343 297 314 284 307 337 44 27 147 197 161 141 106 197
316 317 320 315 324 325 327 332 329 329 334 333 305 287 283 235 263 234 279 267 283 279 275 269 283 288 330 310 252 285 302 311 326 299 309 308 310 311 298 309 296 273 53 245 214 192 178
310 319 318 320 321 326 325 325 323 329 336 335 287 252 255 275 260 230 167 267 296 311 243 305 293 315 324 307 282 256 288 298 288 299 353 51 274 284 297 290 292 42 22 342 322 72 225
307 317 315 316 322 320 326 320 327 333 338 338 295 306 297 274 281 287 272 262 292 296 283 301 284 309 310 295 287 294 294 292 278 314 26 337 275 357 300 349 13 65 13 18 41 355 22
306 311 314 312 313 316 319 319 328 333 338 328 313 307 292 306 286 211 250 257 293 311 299 283 295 305 299 282 279 279 282 273 258 275 296 295 325 348 274 32 52 24 349 13 82 31 341
300 306 314 310 312 315 316 320 325 330 334 324 314 315 293 278 220 257 276 282 287 285 273 293 302 265 288 308 306 289 269 262 260 252 215 231 347 257 264 14 49 220 290 298 87 62 34
295 301 309 311 307 316 317 318 323 331 331 323 321 321 282 274 290 282 270 266 284 289 272 277 286 302 312 311 297 331 330 340 292 206 212 204 214 268 340 60 156 55 353 349 15 60 16
292 297 307 303 307 315 313 313 324 330 329 314 316 314 286 290 252 301 295 276 280 298 297 261 313 327 336 281 283 281 304 301 339 3 32 185 213 288 344 70 67 260 325 240 197 353 7
287 293 301 301 303 308 308 311 323 329 328 317 311 312 291 268 276 301 273 273 293 294 269 304 330 335 358 330 319 322 320 313 15 19 335 352 9 158 254 115 349 355 312 360 55 288 337
282 289 294 300 301 303 306 307 319 320 327 314 314 305 284 278 289 274 266 270 291 289 274 309 339 355 339 1 353 342 304 2 7 355 346 22 337 12 17 60 6 342 14 58 326 318 334
278 284 287 297 294 295 299 297 307 315 311 320 314 308 298 270 273 287 289 284 273 271 276 295 277 299 329 332 354 319 316 341 359 4 347 38 356 357 21 76 98 48 72 30 5 339 340